Tracking 25949 objects as of 9-Aug-2022
HD Live streaming from Space Station
objects crossing your sky now

STARLINK-3992

Track STARLINK-3992 now!
10-day predictions
STARLINK-3992 is classified as:


NORAD ID: 52627
Int'l Code: 2022-052AF
Perigee: 545.8 km
Apogee: 547.9 km
Inclination: 53.2 °
Period: 95.4 minutes
Semi major axis: 6917 km
RCS: Unknown
Launch date: May 14, 2022
Source: United States (US)
Launch site: AIR FORCE EASTERN TEST RANGE (AFETR)
aabbcc
Your satellite tracking list
Your tracking list is empty




NASA's NSSDC Master Catalog

Two Line Element Set (TLE):
1 52627U 22052AF  22221.16667824 -.00030195  00000-0 -18864-2 0  9991
2 52627  53.2201  23.2930 0001473  66.2272  62.7479 15.08852924 13829
Source of the keplerian elements: AFSPC